Time,TemperatureF,DewpointF,PressureIn,WindDirection,WindDirectionDegrees,WindSpeedMPH,WindSpeedGustMPH,Humidity,HourlyPrecipIn,Conditions,Clouds,dailyrainin,SolarRadiationWatts/m^2,SoftwareType,DateUTC
2013-08-20 00:12:00,64.0,62.0,-100.00,South,175,0.0,3.0,93,0.00,,,0.00,0.000000,,2013-08-20 05:12:00,
2013-08-20 00:22:00,64.0,62.0,-100.00,South,175,0.0,3.0,93,0.00,,,0.00,0.000000,,2013-08-20 05:22:00,
2013-08-20 00:32:00,64.0,62.0,-100.00,South,175,0.0,3.0,93,0.00,,,0.00,0.000000,,2013-08-20 05:32:00,
2013-08-20 01:11:00,63.0,62.0,-100.00,South,178,0.0,2.0,96,0.00,,,0.00,0.000000,,2013-08-20 06:11:00,
2013-08-20 01:21:00,63.0,62.0,-100.00,South,178,0.0,2.0,96,0.00,,,0.00,0.000000,,2013-08-20 06:21:00,
2013-08-20 01:31:00,63.0,62.0,-100.00,South,178,0.0,2.0,96,0.00,,,0.00,0.000000,,2013-08-20 06:31:00,
2013-08-20 02:11:00,63.0,62.0,-100.00,SE,143,1.0,2.0,97,0.00,,,0.00,0.000000,,2013-08-20 07:11:00,
2013-08-20 02:22:00,63.0,62.0,-100.00,SE,143,1.0,2.0,97,0.00,,,0.00,0.000000,,2013-08-20 07:22:00,
2013-08-20 02:32:00,63.0,62.0,-100.00,SE,143,1.0,2.0,97,0.00,,,0.00,0.000000,,2013-08-20 07:32:00,
2013-08-20 03:11:00,65.0,63.0,-100.00,SSW,194,2.0,7.0,93,0.00,,,0.00,0.000000,,2013-08-20 08:11:00,
2013-08-20 03:21:00,65.0,63.0,-100.00,SSW,194,2.0,7.0,93,0.00,,,0.00,0.000000,,2013-08-20 08:21:00,
2013-08-20 03:32:00,65.0,63.0,-100.00,SSW,194,2.0,7.0,93,0.00,,,0.00,0.000000,,2013-08-20 08:32:00,
2013-08-20 04:11:00,65.0,63.0,-100.00,SSW,209,3.0,7.0,93,0.00,,,0.00,0.000000,,2013-08-20 09:11:00,
2013-08-20 04:21:00,65.0,63.0,-100.00,SSW,209,3.0,7.0,93,0.00,,,0.00,0.000000,,2013-08-20 09:21:00,
2013-08-20 04:33:00,65.0,63.0,-100.00,SSW,209,3.0,7.0,93,0.00,,,0.00,0.000000,,2013-08-20 09:33:00,
2013-08-20 05:12:00,63.0,62.0,-100.00,SSE,159,1.0,4.0,96,0.00,,,0.00,0.000000,,2013-08-20 10:12:00,
2013-08-20 05:22:00,63.0,62.0,-100.00,SSE,159,1.0,4.0,96,0.00,,,0.00,0.000000,,2013-08-20 10:22:00,
2013-08-20 05:32:00,63.0,62.0,-100.00,SSE,159,1.0,4.0,96,0.00,,,0.00,0.000000,,2013-08-20 10:32:00,
2013-08-20 06:11:00,61.0,60.0,-100.00,East,79,0.0,4.0,98,0.00,,,0.00,0.000000,,2013-08-20 11:11:00,
2013-08-20 06:22:00,61.0,60.0,-100.00,East,79,0.0,4.0,98,0.00,,,0.00,0.000000,,2013-08-20 11:22:00,
2013-08-20 06:33:00,61.0,60.0,-100.00,East,79,0.0,4.0,98,0.00,,,0.00,0.000000,,2013-08-20 11:33:00,
2013-08-20 07:12:00,62.0,61.0,-100.00,SW,217,1.0,4.0,98,0.00,,,0.00,10.000000,,2013-08-20 12:12:00,
2013-08-20 07:21:00,62.0,61.0,-100.00,SW,217,1.0,4.0,98,0.00,,,0.00,10.000000,,2013-08-20 12:21:00,
2013-08-20 07:31:00,62.0,61.0,-100.00,SW,217,1.0,4.0,98,0.00,,,0.00,10.000000,,2013-08-20 12:31:00,
2013-08-20 08:11:00,66.0,63.0,-100.00,SW,218,4.0,8.0,90,0.00,,,-99.99,102.000000,,2013-08-20 13:11:00,
2013-08-20 08:22:00,66.0,63.0,-100.00,SW,218,4.0,8.0,90,0.00,,,-99.99,102.000000,,2013-08-20 13:22:00,
2013-08-20 08:32:00,66.0,63.0,-100.00,SW,218,4.0,8.0,90,0.00,,,-99.99,102.000000,,2013-08-20 13:32:00,
2013-08-20 09:11:00,70.0,64.0,-100.00,SSW,211,4.0,8.0,81,0.00,,,0.00,272.000000,,2013-08-20 14:11:00,
2013-08-20 09:21:00,70.0,64.0,-100.00,SSW,211,4.0,8.0,81,0.00,,,0.00,272.000000,,2013-08-20 14:21:00,
2013-08-20 09:32:00,70.0,64.0,-100.00,SSW,211,4.0,8.0,81,0.00,,,0.00,272.000000,,2013-08-20 14:32:00,
2013-08-20 10:11:00,75.0,65.0,-100.00,SW,214,4.0,12.0,72,0.00,,,0.00,460.000000,,2013-08-20 15:11:00,
2013-08-20 10:22:00,75.0,65.0,-100.00,SW,214,4.0,12.0,72,0.00,,,0.00,460.000000,,2013-08-20 15:22:00,
2013-08-20 10:34:00,75.0,65.0,-100.00,SW,214,4.0,12.0,72,0.00,,,0.00,460.000000,,2013-08-20 15:34:00,
2013-08-20 10:37:00,78.0,66.0,-100.00,SSW,197,5.0,11.0,67,0.00,,,0.00,638.000000,,2013-08-20 15:37:00,
2013-08-20 11:15:00,78.0,66.0,-100.00,SSW,197,5.0,11.0,67,0.00,,,0.00,638.000000,,2013-08-20 16:15:00,
2013-08-20 11:30:00,-999.0,-99.9,-100.00,SSW,197,5.0,11.0,67,0.00,,,0.00,638.000000,,2013-08-20 16:30:00,
2013-08-20 12:12:00,82.0,68.0,-100.00,SSW,213,6.0,14.0,63,0.00,,,0.00,769.000000,,2013-08-20 17:12:00,
2013-08-20 12:24:00,82.0,68.0,-100.00,SSW,213,6.0,14.0,63,0.00,,,0.00,769.000000,,2013-08-20 17:24:00,
2013-08-20 12:34:00,82.0,68.0,-100.00,SSW,213,6.0,14.0,63,0.00,,,0.00,769.000000,,2013-08-20 17:34:00,
2013-08-20 13:12:00,82.0,66.0,-100.00,SW,230,8.0,18.0,59,0.00,,,0.00,814.000000,,2013-08-20 18:12:00,
2013-08-20 13:22:00,82.0,66.0,-100.00,SW,230,8.0,18.0,59,0.00,,,0.00,814.000000,,2013-08-20 18:22:00,
2013-08-20 13:33:00,82.0,66.0,-100.00,SW,230,8.0,18.0,59,0.00,,,0.00,814.000000,,2013-08-20 18:33:00,
2013-08-20 14:11:00,85.0,68.0,-100.00,SW,222,8.0,14.0,56,0.00,,,0.00,886.000000,,2013-08-20 19:11:00,
2013-08-20 14:22:00,85.0,68.0,-100.00,SW,222,8.0,14.0,56,0.00,,,0.00,886.000000,,2013-08-20 19:22:00,
2013-08-20 14:32:00,85.0,68.0,-100.00,SW,222,8.0,14.0,56,0.00,,,0.00,886.000000,,2013-08-20 19:32:00,
2013-08-20 15:12:00,86.0,68.0,-100.00,SW,219,6.0,16.0,55,0.00,,,0.00,782.000000,,2013-08-20 20:12:00,
2013-08-20 15:22:00,86.0,68.0,-100.00,SW,219,6.0,16.0,55,0.00,,,0.00,782.000000,,2013-08-20 20:22:00,
2013-08-20 15:32:00,86.0,68.0,-100.00,SW,219,6.0,16.0,55,0.00,,,0.00,782.000000,,2013-08-20 20:32:00,
2013-08-20 16:11:00,86.0,67.0,-100.00,SW,224,6.0,14.0,53,0.00,,,0.00,689.000000,,2013-08-20 21:11:00,
2013-08-20 16:22:00,86.0,67.0,-100.00,SW,224,6.0,14.0,53,0.00,,,0.00,689.000000,,2013-08-20 21:22:00,
2013-08-20 16:34:00,86.0,67.0,-100.00,SW,224,6.0,14.0,53,0.00,,,0.00,689.000000,,2013-08-20 21:34:00,
2013-08-20 17:14:00,85.0,66.0,-100.00,SW,225,8.0,20.0,54,0.00,,,0.00,515.000000,,2013-08-20 22:14:00,
2013-08-20 17:24:00,85.0,66.0,-100.00,SW,225,8.0,20.0,54,0.00,,,0.00,515.000000,,2013-08-20 22:24:00,
2013-08-20 17:33:00,85.0,66.0,-100.00,SW,225,8.0,20.0,54,0.00,,,0.00,515.000000,,2013-08-20 22:33:00,
2013-08-20 18:12:00,84.0,68.0,-100.00,SW,233,6.0,13.0,58,0.00,,,-99.99,421.000000,,2013-08-20 23:12:00,
2013-08-20 18:22:00,84.0,68.0,-100.00,SW,233,6.0,13.0,58,0.00,,,-99.99,421.000000,,2013-08-20 23:22:00,
2013-08-20 18:33:00,84.0,68.0,-100.00,SW,233,6.0,13.0,58,0.00,,,-99.99,421.000000,,2013-08-20 23:33:00,
2013-08-20 19:12:00,82.0,68.0,-100.00,SW,232,5.0,13.0,62,0.00,,,0.00,259.000000,,2013-08-21 00:12:00,
2013-08-20 19:22:00,82.0,68.0,-100.00,SW,232,5.0,13.0,62,0.00,,,0.00,259.000000,,2013-08-21 00:22:00,
2013-08-20 19:32:00,82.0,68.0,-100.00,SW,232,5.0,13.0,62,0.00,,,0.00,259.000000,,2013-08-21 00:32:00,
2013-08-20 20:11:00,78.0,67.0,-100.00,SW,225,4.0,9.0,69,0.00,,,0.00,60.000000,,2013-08-21 01:11:00,
2013-08-20 20:22:00,78.0,67.0,-100.00,SW,225,4.0,9.0,69,0.00,,,0.00,60.000000,,2013-08-21 01:22:00,
2013-08-20 20:32:00,78.0,67.0,-100.00,SW,225,4.0,9.0,69,0.00,,,0.00,60.000000,,2013-08-21 01:32:00,
2013-08-20 21:12:00,76.0,67.0,-100.00,SW,232,4.0,11.0,73,0.00,,,0.00,5.000000,,2013-08-21 02:12:00,
2013-08-20 21:22:00,76.0,67.0,-100.00,SW,232,4.0,11.0,73,0.00,,,0.00,5.000000,,2013-08-21 02:22:00,
2013-08-20 21:32:00,76.0,67.0,-100.00,SW,232,4.0,11.0,73,0.00,,,0.00,5.000000,,2013-08-21 02:32:00,
2013-08-20 22:12:00,75.0,67.0,-100.00,SSW,195,4.0,10.0,77,0.00,,,0.00,0.000000,,2013-08-21 03:12:00,
2013-08-20 22:23:00,75.0,67.0,-100.00,SSW,195,4.0,10.0,77,0.00,,,0.00,0.000000,,2013-08-21 03:23:00,
2013-08-20 22:35:00,75.0,67.0,-100.00,SSW,195,4.0,10.0,77,0.00,,,0.00,0.000000,,2013-08-21 03:35:00,
2013-08-20 23:14:00,73.0,67.0,-100.00,SSW,207,3.0,9.0,81,0.00,,,0.00,0.000000,,2013-08-21 04:14:00,
2013-08-20 23:24:00,73.0,67.0,-100.00,SSW,207,3.0,9.0,81,0.00,,,0.00,0.000000,,2013-08-21 04:24:00,
2013-08-20 23:33:00,73.0,67.0,-100.00,SSW,207,3.0,9.0,81,0.00,,,0.00,0.000000,,2013-08-21 04:33:00,